Regional Weather Roundup
Issued by NWS Cleveland, OH

Home | Current Version | Previous Version | Graphics & Text | Print | Product List | Glossary On
Versions: 1 2 3 4 5 6 7 8 9 10 11 12 13 14 15 16 17 18 19 20 21 22 23 24 25 26 27 28 29 30 31 32 33 34 35 36 37 38 39 40 41 42 43 44 45 46 47 48 49 50
000
ASUS41 KCLE 070400
RWRCLE
OHIO REGIONAL WEATHER ROUNDUP
NATIONAL WEATHER SERVICE WILMINGTON, OH
1100 PM EST TUE DEC 06 2016

NOTE: "FAIR" INDICATES FEW OR NO CLOUDS BELOW 12,000 FEET WITH NO
SIGNIFICANT WEATHER AND/OR OBSTRUCTIONS TO VISIBILITY.

OHZ001>008-015>018-024>027-034-035-043-044-070500-
   NORTHWEST OHIO

CITY           SKY/WX    TMP DP  RH WIND       PRES   REMARKS
DEFIANCE       FAIR      36  29  75 W9        29.90R
FINDLAY        CLOUDY    37  32  82 W17       29.89R
TOLEDO EXPRESS FAIR      36  34  92 W14       29.86R
TOLEDO EXEC    MOCLDY    37  35  92 W10       29.87R FOG
LIMA           CLOUDY    34  32  92 W16       29.91R WCI  24
$$

OHZ009>014-019>023-028>033-038-089-070500-
   NORTHEAST OHIO

CITY           SKY/WX    TMP DP  RH WIND       PRES   REMARKS
CLE-HOPKINS    CLOUDY    39  35  86 SW12      29.85R
CLE-LAKEFRONT  CLOUDY    40  37  89 SW16      29.82R
CUY CO. ARPT   CLOUDY    39  39 100 W17G29    29.82R
LORAIN-ELYRIA  MOCLDY    36  32  85 W13       29.84R
ASHTABULA      CLOUDY    39  38  96 W14       29.79R
AKRON-CANTON   FOG       36  33  89 W15       29.84R VSB 1
WOOSTER        NOT AVBL
MANSFIELD      CLOUDY    36  35  96 W10       29.85R FOG
YOUNGSTOWN     CLOUDY    40  38  93 W10       29.79R FOG
$$

OHZ042-051>053-060>062-070>072-077>081-070500-
  SOUTHWEST OHIO

CITY           SKY/WX    TMP DP  RH WIND       PRES   REMARKS
CINC-COVINGTON MOCLDY    36  31  82 W12       30.00R
CINC-LUNKEN    CLOUDY    38  31  76 W8        30.02R
HAMILTON       MOCLDY    37  30  75 W8        30.01R
DAYTON         CLOUDY    34  29  82 W13       29.96R WCI  25
WRIGHT-PAT AFB NOT AVBL
DAYTON GENERAL CLOUDY    36  29  75 W10       29.97R
WILMINGTON     CLOUDY    36  32  85 W15       29.96R
$$

OHZ036-037-039>041-045>050-054>059-063>069-073>076-082>088-070500-
  CENTRAL AND SOUTHEAST OHIO

CITY           SKY/WX    TMP DP  RH WIND       PRES   REMARKS
COLUMBUS       CLOUDY    38  38 100 W8        29.91R
OSU AIRPORT    MOCLDY    38  36  92 W9        29.90R
BOLTON FIELD   NOT AVBL
RICKENBACK AFB NOT AVBL
NEWARK         CLOUDY    38  35  89 W7        29.90R FOG
MARION         CLOUDY    37  34  89 W10       29.90R FOG
LANCASTER      CLOUDY    39  37  92 W8        29.92S FOG
ZANESVILLE     CLOUDY    38  34  85 W8G21     29.91R
NEW PHILLY     CLOUDY    38  37  97 W9G17     29.88R
$$




USA.gov is the U.S. government's official web portal to all federal, state and local government web resources and services.